Platteville, WI

10:43 AM CDT on August 28, 2016 (GMT -0500)
Platteville Municipal

Weather History for KPVB - February, 2013

Change the Weather History Date:

Sunday, February 10, 2013

  Actual Average (KDBQ) Record (KDBQ)
Temperature  
Mean Temperature 32 °F 22 °F  
Max Temperature 41 °F 30 °F 60 °F (1876)
Min Temperature 24 °F 14 °F -21 °F (1899)
Degree Days  
Heating Degree Days 32 43  
Month to date heating degree days 440  
Since 1 July heating degree days 4677  
Cooling Degree Days 0 0  
Month to date cooling degree days 0  
Year to date cooling degree days 0  
Moisture  
Dew Point 32 °F    
Average Humidity 91    
Maximum Humidity 100    
Minimum Humidity 76    
Precipitation  
Precipitation 0.13 in 0.05 in 0.56 in (1960)
Month to date precipitation 0.44  
Year to date precipitation 1.61  
Snow  
Snow 0.00 in 0.40 in - ()
Month to date snowfall 3.6  
Since 1 July snowfall 28.2  
Snow Depth -    
Sea Level Pressure  
Sea Level Pressure 29.60 in    
Wind  
Wind Speed 15 mph (SE)    
Max Wind Speed 31 mph    
Max Gust Speed 39 mph    
Visibility 5 miles    
Events      
T = Trace of Precipitation, MM = Missing Value Source: NWS Daily Summary

Daily Weather History Graph

Daily Weather History Graph

Search for Another Location

Airport or City:

Trip Planner

Search our weather history database for the weather conditions in past years. The results will help you decide how hot, cold, wet, or windy it might be!

Date:

Astronomy

Feb. 10, 2013 Rise Set
Actual Time 7:05 AM CST 5:27 PM CST
Civil Twilight 6:35 AM CST 5:56 PM CST
Nautical Twilight 6:02 AM CST 6:30 PM CST
Astronomical Twilight 5:29 AM CST 7:02 PM CST
Moon 6:53 AM CST (2/10) 6:20 PM CST (2/10)
Length of Visible Light 11h 20m
Length of Day
10h 22m
New Moon, 0% of the Moon is Illuminated
Feb 10
New Moon
Feb 17
First Quarter
Feb 25
Full
Mar 4
Last Quarter
Mar 11
New

Hourly Weather History & Observations

Time (CST) Temp. Windchill Dew Point Humidity Pressure Visibility Wind Dir Wind Speed Gust Speed Precip Events Conditions
12:15 AM 26.6 °F 15.7 °F 23.0 °F 86% 30.00 in 5.0 mi East 12.7 mph - N/A   Clear
12:35 AM 26.6 °F 15.7 °F 23.0 °F 86% 30.00 in 5.0 mi East 12.7 mph - N/A   Scattered Clouds
12:55 AM 24.8 °F 13.4 °F 23.0 °F 93% 29.99 in 4.0 mi East 12.7 mph - N/A   Scattered Clouds
1:15 AM 26.6 °F 15.7 °F 23.0 °F 86% 29.97 in 4.0 mi East 12.7 mph - N/A   Mostly Cloudy
1:35 AM 24.8 °F 13.4 °F 23.0 °F 93% 29.96 in 5.0 mi East 12.7 mph - N/A   Mostly Cloudy
1:55 AM 24.8 °F 14.0 °F 23.0 °F 93% 29.96 in 5.0 mi East 11.5 mph - N/A   Scattered Clouds
2:15 AM 26.6 °F 16.2 °F 23.0 °F 86% 29.95 in 5.0 mi East 11.5 mph - N/A   Mostly Cloudy
2:35 AM 26.6 °F 16.8 °F 23.0 °F 86% 29.94 in 5.0 mi East 10.4 mph - N/A   Overcast
2:55 AM 26.6 °F 15.7 °F 23.0 °F 86% 29.92 in 5.0 mi East 12.7 mph - N/A   Mostly Cloudy
3:15 AM 26.6 °F 16.2 °F 24.8 °F 93% 29.92 in 5.0 mi East 11.5 mph - N/A   Overcast
3:35 AM 28.4 °F 18.0 °F 26.6 °F 93% 29.90 in 5.0 mi East 12.7 mph - N/A   Overcast
3:55 AM 28.4 °F 19.7 °F 26.6 °F 93% 29.90 in 5.0 mi East 9.2 mph - N/A   Overcast
4:15 AM 30.2 °F 21.9 °F 28.4 °F 93% 29.89 in 5.0 mi ESE 9.2 mph - N/A   Overcast
4:35 AM 30.2 °F 20.8 °F 28.4 °F 93% 29.87 in 5.0 mi ESE 11.5 mph - N/A   Overcast
4:55 AM 32.0 °F 24.2 °F 30.2 °F 93% 29.87 in 5.0 mi East 9.2 mph - N/A   Overcast
5:15 AM 32.0 °F 24.2 °F 30.2 °F 93% 29.87 in 4.0 mi ESE 9.2 mph - N/A   Overcast
5:35 AM 32.0 °F 24.2 °F 30.2 °F 93% 29.85 in 4.0 mi East 9.2 mph - N/A   Overcast
5:55 AM 32.0 °F 23.6 °F 30.2 °F 93% 29.83 in 4.0 mi East 10.4 mph - N/A   Overcast
6:15 AM 32.0 °F 23.6 °F 30.2 °F 93% 29.82 in 3.0 mi East 10.4 mph - N/A   Overcast
6:35 AM 32.0 °F 22.5 °F 32.0 °F 100% 29.79 in 2.5 mi East 12.7 mph - N/A   Overcast
6:55 AM 32.0 °F 22.1 °F 32.0 °F 100% 29.76 in 2.0 mi East 13.8 mph - N/A   Overcast
7:15 AM 32.0 °F 21.2 °F 32.0 °F 100% 29.74 in 1.2 mi East 16.1 mph - N/A   Overcast
7:35 AM 32.0 °F 20.5 °F 32.0 °F 100% 29.73 in 1.5 mi ESE 18.4 mph - N/A   Overcast
7:55 AM 33.8 °F 22.8 °F 32.0 °F 93% 29.73 in 2.0 mi ESE 18.4 mph - N/A   Overcast
8:15 AM 33.8 °F 23.2 °F 32.0 °F 93% 29.73 in 1.5 mi ESE 17.3 mph 25.3 mph N/A   Overcast
8:35 AM 33.8 °F 22.2 °F 32.0 °F 93% 29.72 in 1.8 mi SE 20.7 mph 24.2 mph N/A   Overcast
8:55 AM 35.6 °F 25.9 °F 33.8 °F 93% 29.71 in 1.5 mi SE 16.1 mph 21.9 mph N/A   Overcast
9:15 AM 35.6 °F 25.9 °F 33.8 °F 93% 29.69 in 1.2 mi ESE 16.1 mph - N/A   Overcast
9:35 AM 35.6 °F 25.5 °F 33.8 °F 93% 29.68 in 1.2 mi ESE 17.3 mph - N/A   Overcast
9:55 AM 35.6 °F 25.2 °F 33.8 °F 93% 29.66 in 1.2 mi ESE 18.4 mph - 0.02 in   Overcast
10:15 AM 35.6 °F 24.8 °F 33.8 °F 93% 29.63 in 2.5 mi ESE 19.6 mph 25.3 mph 0.03 in   Overcast
10:35 AM 35.6 °F 24.8 °F 33.8 °F 93% 29.61 in 5.0 mi ESE 19.6 mph 24.2 mph 0.05 in   Overcast
10:55 AM 35.6 °F 24.2 °F 33.8 °F 93% 29.59 in 5.0 mi ESE 21.9 mph - 0.06 in   Overcast
11:15 AM 35.6 °F 24.8 °F 33.8 °F 93% 29.57 in 7.0 mi ESE 19.6 mph - N/A   Overcast
11:35 AM 35.6 °F 24.5 °F 33.8 °F 93% 29.54 in 3.0 mi ESE 20.7 mph 24.2 mph 0.01 in   Overcast
11:55 AM 35.6 °F 24.5 °F 33.8 °F 93% 29.51 in 5.0 mi ESE 20.7 mph 25.3 mph 0.02 in   Overcast
12:15 PM 35.6 °F 24.5 °F 33.8 °F 93% 29.49 in 7.0 mi SE 20.7 mph 26.5 mph N/A   Overcast
12:35 PM 35.6 °F 25.5 °F 33.8 °F 93% 29.49 in 2.5 mi SE 17.3 mph - 0.02 in   Overcast
12:55 PM 35.6 °F 25.2 °F 33.8 °F 93% 29.48 in 2.5 mi SE 18.4 mph - 0.03 in   Overcast
1:15 PM 35.6 °F 25.2 °F 33.8 °F 93% 29.47 in 2.0 mi SE 18.4 mph - N/A   Overcast
1:35 PM 35.6 °F 24.8 °F 33.8 °F 93% 29.46 in 2.5 mi SE 19.6 mph 24.2 mph N/A   Overcast
1:55 PM 35.6 °F 25.2 °F 33.8 °F 93% 29.44 in 3.0 mi SE 18.4 mph - N/A   Overcast
2:15 PM 37.4 °F 27.8 °F 35.6 °F 93% 29.42 in 5.0 mi SE 17.3 mph - N/A   Overcast
2:35 PM 37.4 °F 27.8 °F 35.6 °F 93% 29.41 in 7.0 mi SE 17.3 mph - N/A   Overcast
2:55 PM 37.4 °F 28.2 °F 35.6 °F 93% 29.40 in 4.0 mi SSE 16.1 mph - N/A   Overcast
3:15 PM 37.4 °F 28.2 °F 35.6 °F 93% 29.41 in 0.2 mi SSE 16.1 mph - N/A   Overcast
3:35 PM 37.4 °F 27.2 °F 35.6 °F 93% 29.40 in 0.2 mi SSE 19.6 mph - N/A   Overcast
3:55 PM 37.4 °F 28.5 °F 35.6 °F 93% 29.40 in 0.2 mi SSE 15.0 mph - N/A   Overcast
4:15 PM 37.4 °F 28.9 °F 35.6 °F 93% 29.39 in 0.2 mi SE 13.8 mph - N/A   Overcast
4:35 PM 37.4 °F 28.5 °F 35.6 °F 93% 29.38 in 0.2 mi SE 15.0 mph - N/A   Overcast
4:55 PM 39.2 °F 30.2 °F 37.4 °F 93% 29.37 in 0.2 mi SE 17.3 mph - N/A   Overcast
5:15 PM 37.4 °F 28.5 °F 37.4 °F 100% 29.36 in 0.2 mi SE 15.0 mph - N/A   Overcast
5:35 PM 39.2 °F 31.2 °F 37.4 °F 93% 29.36 in 0.2 mi SE 13.8 mph - N/A   Overcast
5:55 PM 39.2 °F 30.2 °F 37.4 °F 93% 29.35 in 0.2 mi SE 17.3 mph - N/A   Overcast
6:15 PM 41.0 °F 32.5 °F 37.4 °F 87% 29.35 in 1.0 mi SSE 17.3 mph - N/A   Overcast
6:35 PM 41.0 °F 32.8 °F 41.0 °F 100% 29.35 in 10.0 mi South 16.1 mph 27.6 mph N/A   Overcast
6:55 PM 41.0 °F 32.8 °F 37.4 °F 87% 29.36 in 10.0 mi South 16.1 mph - N/A   Overcast
7:15 PM 39.2 °F 30.8 °F 37.4 °F 93% 29.37 in 10.0 mi South 15.0 mph - N/A   Overcast
7:35 PM 41.0 °F 32.5 °F 37.4 °F 87% 29.38 in 10.0 mi SSW 17.3 mph 28.8 mph N/A   Overcast
7:55 PM 41.0 °F 32.2 °F 35.6 °F 81% 29.38 in 10.0 mi SW 18.4 mph 25.3 mph N/A   Overcast
8:15 PM 41.0 °F 30.0 °F 33.8 °F 76% 29.40 in 10.0 mi SW 28.8 mph 34.5 mph N/A   Overcast
8:35 PM 37.4 °F 26.1 °F 33.8 °F 87% 29.40 in 10.0 mi SSW 24.2 mph 32.2 mph N/A   Overcast
8:55 PM 37.4 °F 26.4 °F 33.8 °F 87% 29.40 in 10.0 mi SSW 23.0 mph 31.1 mph N/A   Overcast
9:15 PM 37.4 °F 27.5 °F 32.0 °F 81% 29.39 in 10.0 mi SSW 18.4 mph - N/A   Overcast
9:35 PM 37.4 °F 25.6 °F 32.0 °F 81% 29.40 in 10.0 mi SSW 26.5 mph 35.7 mph N/A   Overcast
9:55 PM 37.4 °F 26.1 °F 32.0 °F 81% 29.40 in 10.0 mi SSW 24.2 mph 31.1 mph N/A   Overcast
10:15 PM 35.6 °F 23.4 °F 32.0 °F 87% 29.40 in 10.0 mi SSW 25.3 mph 31.1 mph N/A   Overcast
10:35 PM 35.6 °F 24.8 °F 32.0 °F 87% 29.40 in 10.0 mi SSW 19.6 mph 33.4 mph N/A   Overcast
10:55 PM 35.6 °F 22.7 °F 32.0 °F 87% 29.40 in 10.0 mi SSW 28.8 mph 33.4 mph N/A   Overcast
11:15 PM 35.6 °F 22.3 °F 32.0 °F 87% 29.41 in 10.0 mi SW 31.1 mph 39.1 mph N/A   Overcast
11:35 PM 33.8 °F 21.9 °F 32.0 °F 93% 29.41 in 10.0 mi SW 21.9 mph 33.4 mph N/A   Overcast
11:55 PM 33.8 °F 20.1 °F 32.0 °F 93% 29.42 in 10.0 mi SW 29.9 mph 33.4 mph N/A   Overcast